Angoon, AK

3:23 AM AKDT on October 22, 2019 (GMT -0800)
Angoon

Weather History for PAGN - May, 2019

Change the Weather History Date:

Saturday, May 25, 2019

  Actual Average (PASI) Record (PASI)
Temperature  
Mean Temperature 53 °F 49 °F  
Max Temperature 63 °F 55 °F 69 °F (2002)
Min Temperature 43 °F 44 °F 36 °F (1966)
Degree Days  
Heating Degree Days 12 16  
Month to date heating degree days 446  
Growing Degree Days 3 (Base 50)    
Moisture  
Dew Point 44 °F    
Average Humidity 74    
Maximum Humidity 93    
Minimum Humidity 46    
Precipitation  
Precipitation 0.00 in 0.12 in 1.83 in (1982)
Month to date precipitation 3.48  
Year to date precipitation 28.85  
Sea Level Pressure  
Sea Level Pressure 30.14 in    
Wind  
Wind Speed 0 mph (SW)    
Max Wind Speed 5 mph    
Max Gust Speed -    
Visibility 10 miles    
Events      
T = Trace of Precipitation, MM = Missing Value Source: NWS Daily Summary

Daily Weather History Graph

Daily Weather History Graph

Search for Another Location

Airport or City:

Astronomy

May. 25, 2019 Rise Set
Actual Time 4:19 AM AKDT 9:32 PM AKDT
Civil Twilight 3:19 AM AKDT 10:33 PM AKDT
Nautical Twilight 1:27 AM AKDT 12:22 AM AKDT
Astronomical Twilight Sun does not rise Sun does not rise
Moon 2:18 AM AKDT (5/25) 10:47 AM AKDT (5/25)
Length of Visible Light 19h 13m
Length of Day
17h 13m
Waning Gibbous, 58% of the Moon is Illuminated
May 25
Waning Gibbous
May 26
Last Quarter
Jun 3
New
Jun 9
First Quarter
Jun 17
Full

Hourly Weather History & Observations

Time (AKDT) Temp. Windchill Dew Point Humidity Pressure Visibility Wind Dir Wind Speed Gust Speed Precip Events Conditions
12:56 AM 46.9 °F - 43.0 °F 86% 30.15 in 10.0 mi Calm Calm - N/A   Clear
1:56 AM 46.9 °F - 43.0 °F 86% 30.16 in 10.0 mi Calm Calm - N/A   Clear
2:56 AM 46.0 °F - 43.0 °F 89% 30.16 in 10.0 mi Calm Calm - N/A   Clear
3:56 AM 45.0 °F - 43.0 °F 93% 30.15 in 10.0 mi Calm Calm - N/A   Clear
4:56 AM 43.0 °F - 41.0 °F 93% 30.16 in 10.0 mi Calm Calm - N/A   Clear
5:56 AM 45.0 °F - 43.0 °F 93% 30.17 in 10.0 mi Calm Calm - N/A   Clear
6:22 AM 46.4 °F 45.2 °F 42.8 °F 87% 30.20 in 10.0 mi North 3.5 mph - N/A   Mostly Cloudy
6:48 AM 48.2 °F - 42.8 °F 82% 30.20 in 10.0 mi Calm Calm - N/A   Scattered Clouds
6:56 AM 48.0 °F - 44.1 °F 86% 30.18 in 10.0 mi Calm Calm - N/A   Partly Cloudy
7:56 AM 48.9 °F - 44.1 °F 83% 30.17 in 10.0 mi Variable 3.5 mph - N/A   Clear
8:56 AM 50.0 °F - 44.1 °F 80% 30.17 in 10.0 mi Calm Calm - N/A   Clear
9:56 AM 52.0 °F - 44.1 °F 74% 30.17 in 10.0 mi Calm Calm - N/A   Clear
10:56 AM 53.1 °F - 44.1 °F 71% 30.16 in 10.0 mi SW 4.6 mph - N/A   Clear
11:56 AM 57.9 °F - 44.1 °F 60% 30.14 in 10.0 mi Calm Calm - N/A   Clear
12:56 PM 55.9 °F - 45.0 °F 67% 30.14 in 10.0 mi Calm Calm - N/A   Clear
1:56 PM 59.0 °F - 44.1 °F 58% 30.14 in 10.0 mi Calm Calm - N/A   Clear
2:56 PM 59.0 °F - 44.1 °F 58% 30.12 in 10.0 mi Calm Calm - N/A   Clear
3:56 PM 59.0 °F - 43.0 °F 55% 30.12 in 10.0 mi Calm Calm - N/A   Clear
4:56 PM 60.1 °F - 43.0 °F 53% 30.11 in 10.0 mi Calm Calm - N/A   Clear
5:56 PM 63.0 °F - 42.1 °F 46% 30.09 in 9.0 mi Calm Calm - N/A   Clear
6:56 PM 59.0 °F - 45.0 °F 60% 30.08 in 10.0 mi Calm Calm - N/A   Clear
7:56 PM 55.0 °F - 44.1 °F 67% 30.07 in 10.0 mi Calm Calm - N/A   Clear
8:56 PM 55.9 °F - 45.0 °F 67% 30.08 in 10.0 mi South 3.5 mph - N/A   Clear
9:56 PM 52.0 °F - 45.0 °F 77% 30.09 in 10.0 mi Calm Calm - N/A   Clear
10:56 PM 50.0 °F - 44.1 °F 80% 30.09 in 10.0 mi Calm Calm - N/A   Clear
11:56 PM 48.9 °F - 43.0 °F 80% 30.08 in 10.0 mi Calm Calm - N/A   Clear